Location: Unspecified
(0.0000°N, 0.0000°E)
Time: 12:21:42
(UTC+00:00)

ISS - Visible Passes

Search period start: 02 August 2015 00:00
Search period end: 12 August 2015 00:00
Orbit: 401 x 403 km, 51.6° (Epoch: 02 August)

Date Brightness Start Highest point End Pass type
(mag) Time Alt. Az. Time Alt. Az. Time Alt. Az.
03 Aug -2.3 04:52:30 10° NNW 04:55:38 47° NE 04:58:47 10° SE visible
04 Aug -0.3 04:03:24 16° ENE 04:03:24 16° ENE 04:04:53 10° E visible
04 Aug -1.4 05:37:07 10° W 05:38:57 14° SW 05:40:40 10° SSW visible
05 Aug -1.1 04:48:12 15° S 04:48:12 15° S 04:48:57 10° SSE visible
